WXM80 ListenWXM80 Stop

You find our weather info also at:

UK Metoffice

WeatherCloud

Weather Underground

Northeastern Weather Network

AWEKAS

Citizen Weather Observer Program (CWOP)

HAMweather, WeatherForYou, PWS Weather


Weather Underground History page Text

Daily Summary for March 4, 2017 Units:  English    Metric   Both
« Previous Day
Next Day »
Daily Weekly Monthly Yearly Custom
  High: Low: Average:
Temperature: 31.0 °F 18.2 °F 24.5 °F
Dew Point: 13.0 °F -1.2 °F 6.3 °F
Humidity: 57 % 34 % 46 %
Wind Speed: 14.7 mph 2.6 mph 7.5 mph
Wind Gust: 24.2 mph - -
Wind:- - WNW
Pressure: 30.55 in 30.39 in -
Precipitation: 0.00 in    
Historical Graphs
 
 
Tabular Data for March 4, 2017
Time Temperature Dew Point Pressure Wind Wind Speed Wind Gust Humidity Rainfall Rate (Hourly)
00:00 25.2 °F 7.8 °F 30.39 in WNW 8.4 mph 12.7 mph 47 % 0.00 in
00:06 25.1 °F 7.2 °F 30.40 in NNW 11.6 mph 17.3 mph 46 % 0.00 in
00:11 25.0 °F 7.6 °F 30.40 in WNW 5.5 mph 12.7 mph 47 % 0.00 in
00:16 24.9 °F 7.0 °F 30.40 in WNW 9.3 mph 13.0 mph 46 % 0.00 in
00:21 24.8 °F 8.3 °F 30.41 in WNW 8.2 mph 22.0 mph 49 % 0.00 in
00:26 24.8 °F 7.4 °F 30.41 in NNW 8.9 mph 23.0 mph 47 % 0.00 in
00:31 24.7 °F 7.8 °F 30.41 in NW 5.1 mph 11.5 mph 48 % 0.00 in
00:36 24.7 °F 8.7 °F 30.42 in WNW 9.6 mph 19.6 mph 50 % 0.00 in
00:41 24.6 °F 8.1 °F 30.42 in WNW 8.9 mph 11.5 mph 49 % 0.00 in
00:46 24.5 °F 8.0 °F 30.42 in NW 9.0 mph 18.0 mph 49 % 0.00 in
00:51 24.5 °F 7.6 °F 30.42 in WNW 8.3 mph 19.6 mph 48 % 0.00 in
00:56 24.3 °F 6.5 °F 30.42 in NNW 8.2 mph 12.7 mph 46 % 0.00 in
01:01 24.3 °F 7.4 °F 30.42 in NW 6.5 mph 12.7 mph 48 % 0.00 in
01:02 24.2 °F 7.8 °F 30.42 in WNW 7.1 mph 12.7 mph 49 % 0.00 in
01:07 24.2 °F 7.8 °F 30.42 in WNW 3.3 mph 11.5 mph 49 % 0.00 in
01:12 24.1 °F 7.2 °F 30.42 in NW 9.2 mph 19.6 mph 48 % 0.00 in
01:17 24.0 °F 7.1 °F 30.42 in WSW 8.9 mph 18.4 mph 48 % 0.00 in
01:22 24.0 °F 7.1 °F 30.42 in NW 12.7 mph 18.4 mph 48 % 0.00 in
01:27 24.0 °F 7.1 °F 30.42 in NW 10.7 mph 16.1 mph 48 % 0.00 in
01:32 23.9 °F 7.5 °F 30.42 in NW 7.6 mph 15.0 mph 49 % 0.00 in
01:37 23.8 °F 7.4 °F 30.42 in NW 9.9 mph 20.7 mph 49 % 0.00 in
01:42 23.8 °F 6.9 °F 30.42 in NW 9.6 mph 17.3 mph 48 % 0.00 in
01:47 23.7 °F 7.3 °F 30.42 in North 9.4 mph 17.0 mph 49 % 0.00 in
01:53 23.7 °F 7.3 °F 30.42 in WNW 9.5 mph 17.3 mph 49 % 0.00 in
01:58 23.6 °F 7.7 °F 30.42 in NW 9.0 mph 15.0 mph 50 % 0.00 in
02:03 23.6 °F 7.7 °F 30.42 in NNW 8.5 mph 17.0 mph 50 % 0.00 in
02:08 23.6 °F 7.7 °F 30.42 in WNW 6.0 mph 11.0 mph 50 % 0.00 in
02:13 23.6 °F 8.1 °F 30.42 in NW 7.7 mph 17.0 mph 51 % 0.00 in
02:18 23.5 °F 7.6 °F 30.42 in NW 7.0 mph 17.0 mph 50 % 0.00 in
02:23 23.5 °F 7.6 °F 30.42 in NW 6.3 mph 10.4 mph 50 % 0.00 in
02:28 23.4 °F 6.6 °F 30.42 in NW 9.0 mph 16.0 mph 48 % 0.00 in
02:33 23.3 °F 6.0 °F 30.41 in NNW 5.2 mph 15.0 mph 47 % 0.00 in
02:38 23.2 °F 6.3 °F 30.41 in NW 7.0 mph 16.0 mph 48 % 0.00 in
02:43 23.1 °F 5.8 °F 30.41 in NW 8.0 mph 17.0 mph 47 % 0.00 in
02:48 23.0 °F 6.7 °F 30.41 in NW 7.0 mph 16.0 mph 49 % 0.00 in
02:53 23.0 °F 6.7 °F 30.41 in NW 8.0 mph 13.8 mph 49 % 0.00 in
02:58 22.9 °F 7.0 °F 30.41 in North 8.8 mph 21.0 mph 50 % 0.00 in
03:03 22.9 °F 6.6 °F 30.42 in NW 8.6 mph 15.0 mph 49 % 0.00 in
03:08 22.9 °F 7.0 °F 30.41 in WNW 7.5 mph 13.0 mph 50 % 0.00 in
03:13 22.8 °F 7.8 °F 30.42 in NW 11.5 mph 18.4 mph 52 % 0.00 in
03:18 22.7 °F 6.4 °F 30.42 in NW 10.9 mph 17.3 mph 49 % 0.00 in
03:24 22.6 °F 6.7 °F 30.42 in North 5.7 mph 7.0 mph 50 % 0.00 in
03:29 22.6 °F 7.6 °F 30.42 in NNE 7.6 mph 11.5 mph 52 % 0.00 in
03:32 22.6 °F 7.6 °F 30.42 in WNW 6.6 mph 11.5 mph 52 % 0.00 in
03:37 22.5 °F 7.1 °F 30.42 in WNW 11.5 mph 19.6 mph 51 % 0.00 in
03:42 22.3 °F 6.0 °F 30.42 in NW 10.0 mph 17.3 mph 49 % 0.00 in
03:47 22.3 °F 7.3 °F 30.42 in NW 5.5 mph 11.0 mph 52 % 0.00 in
03:52 22.2 °F 6.8 °F 30.42 in WNW 9.6 mph 15.0 mph 51 % 0.00 in
03:58 22.1 °F 6.3 °F 30.42 in NW 7.8 mph 11.5 mph 50 % 0.00 in
04:03 22.0 °F 6.6 °F 30.43 in NW 5.2 mph 11.5 mph 51 % 0.00 in
04:08 22.0 °F 7.5 °F 30.43 in WNW 5.4 mph 13.8 mph 53 % 0.00 in
04:13 22.0 °F 6.6 °F 30.44 in WNW 8.5 mph 15.0 mph 51 % 0.00 in
04:18 22.0 °F 7.0 °F 30.44 in NW 6.3 mph 11.5 mph 52 % 0.00 in
04:23 21.9 °F 6.9 °F 30.44 in NW 6.5 mph 16.1 mph 52 % 0.00 in
04:28 21.8 °F 6.8 °F 30.44 in WNW 5.0 mph 12.0 mph 52 % 0.00 in
04:33 21.8 °F 7.3 °F 30.44 in WNW 4.5 mph 11.5 mph 53 % 0.00 in
04:38 21.7 °F 7.6 °F 30.44 in WNW 5.0 mph 10.4 mph 54 % 0.00 in
04:44 21.7 °F 7.2 °F 30.44 in NNE 4.4 mph 10.4 mph 53 % 0.00 in
04:48 21.7 °F 7.2 °F 30.44 in WNW 5.2 mph 11.5 mph 53 % 0.00 in
04:54 21.6 °F 7.5 °F 30.44 in West 5.4 mph 11.5 mph 54 % 0.00 in
04:59 21.6 °F 7.9 °F 30.44 in WNW 7.6 mph 13.0 mph 55 % 0.00 in
05:04 21.6 °F 7.1 °F 30.43 in NNW 2.7 mph 6.9 mph 53 % 0.00 in
05:09 21.5 °F 6.6 °F 30.43 in NNW 5.2 mph 12.7 mph 52 % 0.00 in
05:14 21.5 °F 7.4 °F 30.44 in WNW 7.8 mph 7.8 mph 54 % 0.00 in
05:19 21.5 °F 7.4 °F 30.44 in WSW 5.4 mph 10.4 mph 54 % 0.00 in
05:24 21.5 °F 7.0 °F 30.44 in WNW 4.0 mph 8.1 mph 53 % 0.00 in
05:29 21.4 °F 6.9 °F 30.44 in NW 3.6 mph 8.1 mph 53 % 0.00 in
05:34 21.4 °F 7.3 °F 30.44 in NW 7.2 mph 10.4 mph 54 % 0.00 in
05:39 21.4 °F 7.7 °F 30.44 in WNW 6.4 mph 11.5 mph 55 % 0.00 in
05:44 21.4 °F 7.7 °F 30.45 in West 3.9 mph 9.2 mph 55 % 0.00 in
05:49 21.3 °F 7.2 °F 30.45 in WNW 7.1 mph 16.0 mph 54 % 0.00 in
05:55 21.2 °F 7.1 °F 30.45 in WSW 6.4 mph 11.5 mph 54 % 0.00 in
06:00 21.2 °F 7.5 °F 30.45 in WNW 7.6 mph 11.5 mph 55 % 0.00 in
06:05 21.2 °F 7.5 °F 30.45 in WNW 3.0 mph 5.0 mph 55 % 0.00 in
06:10 21.2 °F 7.5 °F 30.45 in WSW 3.3 mph 9.0 mph 55 % 0.00 in
06:15 21.1 °F 7.4 °F 30.45 in NW 5.4 mph 9.2 mph 55 % 0.00 in
06:20 21.1 °F 7.8 °F 30.46 in WNW 6.9 mph 15.0 mph 56 % 0.00 in
06:30 21.1 °F 7.8 °F 30.46 in WNW 4.2 mph 8.1 mph 56 % 0.00 in
06:35 21.1 °F 8.2 °F 30.46 in WNW 3.8 mph 8.1 mph 57 % 0.00 in
06:40 21.2 °F 7.9 °F 30.46 in WNW 3.8 mph 8.1 mph 56 % 0.00 in
06:41 21.2 °F 7.9 °F 30.46 in West 4.7 mph 8.1 mph 56 % 0.00 in
06:46 21.3 °F 8.4 °F 30.47 in NW 4.0 mph 9.2 mph 57 % 0.00 in
06:51 21.4 °F 8.5 °F 30.47 in WSW 4.0 mph 8.0 mph 57 % 0.00 in
06:56 21.5 °F 8.6 °F 30.47 in WNW 4.6 mph 8.0 mph 57 % 0.00 in
07:01 21.6 °F 8.3 °F 30.46 in WNW 5.3 mph 11.5 mph 56 % 0.00 in
07:06 21.6 °F 7.9 °F 30.47 in WNW 3.5 mph 9.2 mph 55 % 0.00 in
07:11 21.6 °F 8.3 °F 30.47 in WNW 3.2 mph 4.6 mph 56 % 0.00 in
07:16 21.8 °F 8.5 °F 30.47 in WSW 3.6 mph 6.9 mph 56 % 0.00 in
07:18 21.9 °F 8.2 °F 30.47 in WNW 3.6 mph 9.2 mph 55 % 0.00 in
07:23 22.1 °F 8.4 °F 30.47 in West 4.2 mph 8.1 mph 55 % 0.00 in
07:28 22.3 °F 8.6 °F 30.48 in WNW 8.0 mph 12.0 mph 55 % 0.00 in
07:33 22.4 °F 8.7 °F 30.48 in WNW 3.0 mph 12.0 mph 55 % 0.00 in
07:38 22.6 °F 9.2 °F 30.48 in WNW 5.0 mph 10.0 mph 56 % 0.00 in
07:43 22.9 °F 9.5 °F 30.48 in WNW 8.0 mph 14.0 mph 56 % 0.00 in
07:48 23.0 °F 9.3 °F 30.48 in West 9.0 mph 15.0 mph 55 % 0.00 in
07:53 23.1 °F 8.9 °F 30.48 in West 6.0 mph 14.0 mph 54 % 0.00 in
07:58 23.2 °F 9.0 °F 30.48 in NW 2.6 mph 9.2 mph 54 % 0.00 in
08:03 23.3 °F 9.5 °F 30.48 in NW 3.0 mph 6.9 mph 55 % 0.00 in
08:08 23.3 °F 9.1 °F 30.48 in WNW 6.0 mph 12.0 mph 54 % 0.00 in
08:13 23.4 °F 9.6 °F 30.49 in West 4.1 mph 8.1 mph 55 % 0.00 in
08:18 23.4 °F 8.8 °F 30.48 in WNW 5.0 mph 10.0 mph 53 % 0.00 in
08:23 23.4 °F 8.8 °F 30.48 in WNW 5.0 mph 10.4 mph 53 % 0.00 in
08:28 23.4 °F 9.2 °F 30.48 in WNW 6.0 mph 16.0 mph 54 % 0.00 in
08:33 23.5 °F 9.7 °F 30.48 in WSW 5.0 mph 11.5 mph 55 % 0.00 in
08:38 23.5 °F 10.1 °F 30.48 in West 7.0 mph 15.0 mph 56 % 0.00 in
08:43 23.4 °F 10.0 °F 30.48 in West 6.0 mph 10.0 mph 56 % 0.00 in
08:48 23.3 °F 9.5 °F 30.48 in West 6.0 mph 16.0 mph 55 % 0.00 in
08:53 23.4 °F 9.6 °F 30.47 in WNW 7.8 mph 15.0 mph 55 % 0.00 in
08:58 23.7 °F 9.0 °F 30.47 in WNW 7.7 mph 12.7 mph 53 % 0.00 in
09:03 23.9 °F 8.4 °F 30.47 in WNW 6.0 mph 10.4 mph 51 % 0.00 in
09:08 24.4 °F 10.1 °F 30.47 in West 5.0 mph 12.0 mph 54 % 0.00 in
09:13 24.6 °F 9.5 °F 30.47 in WNW 8.1 mph 17.3 mph 52 % 0.00 in
09:18 24.9 °F 8.9 °F 30.47 in WNW 6.0 mph 11.5 mph 50 % 0.00 in
09:23 25.2 °F 9.1 °F 30.47 in WNW 8.1 mph 13.8 mph 50 % 0.00 in
09:29 25.3 °F 9.2 °F 30.47 in NW 7.9 mph 11.5 mph 50 % 0.00 in
09:34 25.6 °F 9.5 °F 30.47 in NW 5.5 mph 15.0 mph 50 % 0.00 in
09:39 25.8 °F 10.1 °F 30.47 in NW 7.3 mph 16.1 mph 51 % 0.00 in
09:44 26.0 °F 10.3 °F 30.47 in NNW 6.7 mph 11.5 mph 51 % 0.00 in
09:45 26.0 °F 10.3 °F 30.47 in NNW 2.6 mph 12.7 mph 51 % 0.00 in
09:50 26.2 °F 10.1 °F 30.47 in NNW 3.9 mph 11.5 mph 50 % 0.00 in
09:55 26.3 °F 10.6 °F 30.46 in WSW 4.3 mph 13.0 mph 51 % 0.00 in
10:00 26.5 °F 10.3 °F 30.46 in NNW 3.7 mph 9.2 mph 50 % 0.00 in
10:05 26.8 °F 10.6 °F 30.46 in NNW 8.0 mph 11.5 mph 50 % 0.00 in
10:10 26.9 °F 10.7 °F 30.46 in NNW 6.8 mph 10.4 mph 50 % 0.00 in
10:15 27.1 °F 10.4 °F 30.46 in WNW 4.2 mph 10.4 mph 49 % 0.00 in
10:20 27.2 °F 10.5 °F 30.45 in WNW 6.5 mph 19.6 mph 49 % 0.00 in
10:26 27.2 °F 11.0 °F 30.45 in WNW 7.1 mph 13.0 mph 50 % 0.00 in
10:31 27.4 °F 10.7 °F 30.45 in WNW 3.9 mph 11.5 mph 49 % 0.00 in
10:36 27.6 °F 10.4 °F 30.45 in NNW 8.7 mph 11.5 mph 48 % 0.00 in
10:41 28.0 °F 10.8 °F 30.45 in WSW 6.1 mph 13.8 mph 48 % 0.00 in
10:46 28.2 °F 11.0 °F 30.45 in NW 4.4 mph 11.0 mph 48 % 0.00 in
10:51 28.1 °F 11.4 °F 30.45 in NW 3.8 mph 16.1 mph 49 % 0.00 in
10:56 28.0 °F 10.8 °F 30.45 in WNW 5.5 mph 11.5 mph 48 % 0.00 in
11:01 27.9 °F 11.2 °F 30.45 in NW 9.9 mph 20.7 mph 49 % 0.00 in
11:06 27.9 °F 11.6 °F 30.44 in West 6.4 mph 11.5 mph 50 % 0.00 in
11:11 27.7 °F 10.5 °F 30.45 in WNW 8.3 mph 18.4 mph 48 % 0.00 in
11:16 27.9 °F 10.2 °F 30.44 in WNW 8.0 mph 12.7 mph 47 % 0.00 in
11:21 28.3 °F 9.6 °F 30.44 in NNW 6.3 mph 10.0 mph 45 % 0.00 in
11:27 28.0 °F 10.3 °F 30.44 in WNW 8.3 mph 12.7 mph 47 % 0.00 in
11:32 27.8 °F 9.7 °F 30.44 in NW 2.9 mph 9.2 mph 46 % 0.00 in
11:37 27.7 °F 10.5 °F 30.44 in NW 8.4 mph 14.0 mph 48 % 0.00 in
11:42 27.8 °F 9.7 °F 30.44 in WNW 8.3 mph 11.5 mph 46 % 0.00 in
11:47 27.7 °F 9.6 °F 30.44 in WNW 8.0 mph 12.7 mph 46 % 0.00 in
11:52 27.7 °F 10.1 °F 30.43 in NW 6.2 mph 11.5 mph 47 % 0.00 in
11:57 28.1 °F 11.4 °F 30.44 in NNW 6.4 mph 13.8 mph 49 % 0.00 in
12:02 28.6 °F 11.8 °F 30.44 in NNW 8.1 mph 15.0 mph 49 % 0.00 in
12:07 28.7 °F 11.9 °F 30.43 in NW 8.3 mph 15.0 mph 49 % 0.00 in
12:12 28.4 °F 12.6 °F 30.44 in NW 9.5 mph 19.6 mph 51 % 0.00 in
12:17 28.4 °F 13.0 °F 30.43 in NW 9.0 mph 15.0 mph 52 % 0.00 in
12:22 28.5 °F 12.6 °F 30.43 in NNW 8.7 mph 19.6 mph 51 % 0.00 in
12:28 28.6 °F 12.3 °F 30.42 in WNW 7.0 mph 7.0 mph 50 % 0.00 in
12:33 28.5 °F 11.3 °F 30.42 in WNW 6.7 mph 11.5 mph 48 % 0.00 in
12:38 28.7 °F 11.9 °F 30.42 in SW 11.2 mph 15.0 mph 49 % 0.00 in
12:43 29.3 °F 12.0 °F 30.42 in West 8.7 mph 16.1 mph 48 % 0.00 in
12:48 29.7 °F 11.4 °F 30.42 in WNW 9.0 mph 20.0 mph 46 % 0.00 in
12:53 29.9 °F 11.6 °F 30.42 in NW 12.0 mph 23.0 mph 46 % 0.00 in
12:58 29.8 °F 11.5 °F 30.42 in NNW 10.2 mph 19.6 mph 46 % 0.00 in
13:03 29.4 °F 10.1 °F 30.41 in WNW 8.6 mph 16.1 mph 44 % 0.00 in
13:08 29.4 °F 11.1 °F 30.41 in West 9.5 mph 17.3 mph 46 % 0.00 in
13:13 29.7 °F 10.4 °F 30.41 in NNW 10.5 mph 21.0 mph 44 % 0.00 in
13:18 29.5 °F 9.7 °F 30.41 in WNW 10.2 mph 17.3 mph 43 % 0.00 in
13:23 29.3 °F 9.5 °F 30.40 in NW 10.0 mph 21.9 mph 43 % 0.00 in
13:28 29.8 °F 11.0 °F 30.40 in WNW 12.6 mph 19.6 mph 45 % 0.00 in
13:34 30.1 °F 9.7 °F 30.40 in WNW 13.2 mph 23.0 mph 42 % 0.00 in
13:39 30.2 °F 10.4 °F 30.39 in NW 10.0 mph 18.0 mph 43 % 0.00 in
13:44 30.4 °F 10.5 °F 30.40 in West 12.8 mph 15.0 mph 43 % 0.00 in
13:49 30.7 °F 11.3 °F 30.40 in WNW 6.9 mph 9.2 mph 44 % 0.00 in
13:54 30.6 °F 9.7 °F 30.40 in West 13.3 mph 19.6 mph 41 % 0.00 in
13:59 30.5 °F 9.6 °F 30.40 in NW 14.7 mph 24.2 mph 41 % 0.00 in
14:04 30.3 °F 8.8 °F 30.40 in WSW 10.4 mph 24.2 mph 40 % 0.00 in
14:09 30.3 °F 8.3 °F 30.40 in West 11.9 mph 19.6 mph 39 % 0.00 in
14:14 30.4 °F 8.4 °F 30.40 in West 8.2 mph 23.0 mph 39 % 0.00 in
14:19 30.8 °F 10.4 °F 30.40 in WNW 12.9 mph 21.9 mph 42 % 0.00 in
14:24 31.0 °F 8.9 °F 30.40 in WNW 8.6 mph 19.6 mph 39 % 0.00 in
14:29 31.0 °F 9.5 °F 30.40 in WNW 10.6 mph 20.0 mph 40 % 0.00 in
14:34 30.8 °F 9.3 °F 30.41 in NW 10.4 mph 19.6 mph 40 % 0.00 in
14:39 30.5 °F 6.1 °F 30.41 in NNW 9.8 mph 19.6 mph 35 % 0.00 in
14:45 30.0 °F 6.8 °F 30.40 in WNW 9.5 mph 18.4 mph 37 % 0.00 in
14:50 29.5 °F 5.8 °F 30.40 in WNW 14.7 mph 21.9 mph 36 % 0.00 in
14:55 29.3 °F 7.4 °F 30.41 in NNW 11.0 mph 23.0 mph 39 % 0.00 in
14:58 29.4 °F 8.0 °F 30.41 in NNW 9.6 mph 17.3 mph 40 % 0.00 in
15:03 29.4 °F 6.3 °F 30.40 in NW 8.1 mph 13.8 mph 37 % 0.00 in
15:08 29.3 °F 6.8 °F 30.40 in NW 13.5 mph 23.0 mph 38 % 0.00 in
15:13 29.2 °F 5.5 °F 30.40 in NW 11.4 mph 19.6 mph 36 % 0.00 in
15:18 28.9 °F 5.2 °F 30.41 in NW 12.7 mph 20.7 mph 36 % 0.00 in
15:23 28.8 °F 5.2 °F 30.40 in NW 8.7 mph 13.0 mph 36 % 0.00 in
15:29 28.7 °F 5.1 °F 30.40 in NNW 8.1 mph 18.4 mph 36 % 0.00 in
15:34 28.6 °F 4.4 °F 30.41 in West 6.1 mph 19.6 mph 35 % 0.00 in
15:39 28.7 °F 5.1 °F 30.41 in West 9.2 mph 16.1 mph 36 % 0.00 in
15:44 28.7 °F 4.5 °F 30.41 in NNW 5.7 mph 18.4 mph 35 % 0.00 in
15:49 28.6 °F 4.4 °F 30.41 in NW 9.0 mph 17.3 mph 35 % 0.00 in
15:54 28.5 °F 3.6 °F 30.41 in NW 9.6 mph 19.0 mph 34 % 0.00 in
15:59 28.4 °F 4.2 °F 30.41 in WNW 11.1 mph 19.6 mph 35 % 0.00 in
16:04 28.2 °F 3.4 °F 30.41 in WNW 7.0 mph 16.1 mph 34 % 0.00 in
16:09 28.1 °F 3.9 °F 30.41 in NNW 10.8 mph 18.4 mph 35 % 0.00 in
16:14 28.0 °F 4.4 °F 30.41 in North 4.7 mph 15.0 mph 36 % 0.00 in
16:19 28.1 °F 3.9 °F 30.41 in North 10.0 mph 15.0 mph 35 % 0.00 in
16:24 28.0 °F 5.0 °F 30.42 in NNW 10.7 mph 21.0 mph 37 % 0.00 in
16:29 27.9 °F 5.0 °F 30.42 in WNW 5.9 mph 11.5 mph 37 % 0.00 in
16:34 27.8 °F 4.3 °F 30.43 in North 9.1 mph 18.4 mph 36 % 0.00 in
16:39 27.7 °F 5.4 °F 30.42 in NNW 5.6 mph 15.0 mph 38 % 0.00 in
16:45 27.6 °F 4.7 °F 30.43 in North 6.6 mph 15.0 mph 37 % 0.00 in
16:50 27.5 °F 4.6 °F 30.43 in NW 6.6 mph 11.5 mph 37 % 0.00 in
16:55 27.4 °F 4.5 °F 30.44 in NNW 9.4 mph 16.1 mph 37 % 0.00 in
17:00 27.2 °F 3.7 °F 30.44 in WNW 9.6 mph 16.1 mph 36 % 0.00 in
17:05 27.0 °F 2.9 °F 30.44 in NNW 7.8 mph 15.0 mph 35 % 0.00 in
17:10 26.9 °F 2.8 °F 30.44 in North 9.7 mph 19.6 mph 35 % 0.00 in
17:15 26.7 °F 2.0 °F 30.45 in NNW 9.5 mph 16.1 mph 34 % 0.00 in
17:20 26.5 °F 1.9 °F 30.45 in SW 11.1 mph 19.6 mph 34 % 0.00 in
17:26 26.4 °F 3.0 °F 30.45 in NW 8.6 mph 16.1 mph 36 % 0.00 in
17:31 26.3 °F 2.3 °F 30.46 in NNW 8.4 mph 19.6 mph 35 % 0.00 in
17:36 26.2 °F 2.8 °F 30.46 in NW 7.0 mph 16.1 mph 36 % 0.00 in
17:41 26.1 °F 2.1 °F 30.46 in NW 8.0 mph 11.5 mph 35 % 0.00 in
17:46 26.0 °F 4.4 °F 30.46 in NW 8.6 mph 19.6 mph 39 % 0.00 in
17:51 25.8 °F 2.5 °F 30.46 in WNW 11.5 mph 11.5 mph 36 % 0.00 in
17:56 25.7 °F 1.8 °F 30.47 in NNW 9.5 mph 15.0 mph 35 % 0.00 in
18:01 25.6 °F 1.7 °F 30.48 in West 7.6 mph 18.4 mph 35 % 0.00 in
18:06 25.4 °F 1.5 °F 30.48 in NNW 7.5 mph 10.4 mph 35 % 0.00 in
18:11 25.3 °F 2.0 °F 30.48 in NW 6.7 mph 13.8 mph 36 % 0.00 in
18:16 25.2 °F 2.5 °F 30.48 in NW 10.9 mph 15.0 mph 37 % 0.00 in
18:21 25.2 °F 3.1 °F 30.49 in NNW 4.5 mph 6.9 mph 38 % 0.00 in
18:26 25.1 °F 3.0 °F 30.49 in NW 5.2 mph 9.2 mph 38 % 0.00 in
18:31 25.0 °F 2.9 °F 30.49 in NNW 7.7 mph 16.1 mph 38 % 0.00 in
18:37 24.9 °F 2.8 °F 30.49 in NNW 7.9 mph 13.8 mph 38 % 0.00 in
18:42 24.8 °F 1.0 °F 30.49 in NNW 9.3 mph 14.0 mph 35 % 0.00 in
18:47 24.6 °F 1.4 °F 30.49 in WNW 10.5 mph 18.4 mph 36 % 0.00 in
18:52 24.4 °F 2.4 °F 30.49 in NE 9.0 mph 12.7 mph 38 % 0.00 in
18:57 24.3 °F 2.9 °F 30.49 in NNE 11.5 mph 17.0 mph 39 % 0.00 in
19:02 24.2 °F 2.2 °F 30.50 in NNE 8.2 mph 11.5 mph 38 % 0.00 in
19:07 24.0 °F 1.5 °F 30.50 in NNE 4.3 mph 15.0 mph 37 % 0.00 in
19:12 23.9 °F 1.4 °F 30.50 in NW 5.9 mph 10.4 mph 37 % 0.00 in
19:17 23.8 °F 1.3 °F 30.50 in North 4.1 mph 6.9 mph 37 % 0.00 in
19:22 23.6 °F 1.7 °F 30.50 in North 10.9 mph 16.1 mph 38 % 0.00 in
19:27 23.6 °F 1.7 °F 30.50 in NNW 8.9 mph 16.1 mph 38 % 0.00 in
19:32 23.5 °F 2.1 °F 30.50 in North 8.2 mph 12.0 mph 39 % 0.00 in
19:37 23.4 °F 0.9 °F 30.50 in North 8.6 mph 11.5 mph 37 % 0.00 in
19:43 23.3 °F 1.4 °F 30.50 in NNW 7.5 mph 16.1 mph 38 % 0.00 in
19:48 23.2 °F 0.7 °F 30.50 in NNE 7.7 mph 13.8 mph 37 % 0.00 in
19:53 23.1 °F 2.9 °F 30.50 in NE 5.5 mph 11.5 mph 41 % 0.00 in
19:58 23.1 °F 1.8 °F 30.50 in North 5.0 mph 17.3 mph 39 % 0.00 in
20:03 23.0 °F 1.7 °F 30.50 in NNW 7.0 mph 18.0 mph 39 % 0.00 in
20:08 22.9 °F 1.6 °F 30.50 in North 7.0 mph 14.0 mph 39 % 0.00 in
20:13 22.8 °F 0.9 °F 30.51 in North 9.0 mph 15.0 mph 38 % 0.00 in
20:18 22.6 °F 1.4 °F 30.51 in NNW 10.0 mph 18.0 mph 39 % 0.00 in
20:23 22.5 °F 1.2 °F 30.51 in North 6.8 mph 10.4 mph 39 % 0.00 in
20:28 22.5 °F 1.2 °F 30.51 in NNW 7.0 mph 20.0 mph 39 % 0.00 in
20:33 22.4 °F 1.1 °F 30.52 in NNW 4.3 mph 13.8 mph 39 % 0.00 in
20:38 22.3 °F 2.6 °F 30.52 in North 7.0 mph 12.0 mph 42 % 0.00 in
20:43 22.2 °F 2.0 °F 30.52 in North 9.6 mph 16.0 mph 41 % 0.00 in
20:48 22.1 °F 2.0 °F 30.53 in NNW 9.0 mph 15.0 mph 41 % 0.00 in
20:53 22.0 °F 1.9 °F 30.53 in WNW 7.3 mph 9.2 mph 41 % 0.00 in
20:58 21.9 °F 1.8 °F 30.53 in North 8.9 mph 11.0 mph 41 % 0.00 in
21:03 21.8 °F 0.6 °F 30.53 in NW 4.7 mph 10.4 mph 39 % 0.00 in
21:08 21.6 °F 1.0 °F 30.53 in NW 4.4 mph 11.5 mph 40 % 0.00 in
21:13 21.5 °F 0.3 °F 30.53 in NW 5.9 mph 11.5 mph 39 % 0.00 in
21:18 21.4 °F 1.8 °F 30.54 in WNW 7.9 mph 15.0 mph 42 % 0.00 in
21:23 21.3 °F 1.2 °F 30.54 in NE 5.3 mph 10.4 mph 41 % 0.00 in
21:28 21.2 °F 1.6 °F 30.54 in North 4.9 mph 10.4 mph 42 % 0.00 in
21:33 21.1 °F 1.0 °F 30.54 in NW 9.5 mph 17.0 mph 41 % 0.00 in
21:38 21.0 °F 0.9 °F 30.54 in NNW 4.2 mph 10.4 mph 41 % 0.00 in
21:44 20.8 °F 0.2 °F 30.54 in NW 8.1 mph 16.1 mph 40 % 0.00 in
21:49 20.7 °F 0.7 °F 30.54 in NNW 9.7 mph 19.6 mph 41 % 0.00 in
21:54 20.6 °F 0.6 °F 30.54 in NNW 8.1 mph 11.5 mph 41 % 0.00 in
21:59 20.4 °F -1.2 °F 30.55 in North 6.2 mph 18.4 mph 38 % 0.00 in
22:04 20.3 °F -0.2 °F 30.54 in North 7.2 mph 12.7 mph 40 % 0.00 in
22:09 20.2 °F 1.7 °F 30.55 in WNW 8.0 mph 12.7 mph 44 % 0.00 in
22:14 20.2 °F 2.2 °F 30.55 in NW 4.5 mph 10.4 mph 45 % 0.00 in
22:19 20.1 °F 1.1 °F 30.54 in NW 8.4 mph 16.1 mph 43 % 0.00 in
22:24 20.1 °F 1.1 °F 30.54 in NW 7.6 mph 16.0 mph 43 % 0.00 in
22:29 19.9 °F 1.0 °F 30.54 in NNW 7.1 mph 11.5 mph 43 % 0.00 in
22:34 19.8 °F 0.4 °F 30.54 in NW 6.4 mph 13.8 mph 42 % 0.00 in
22:39 19.6 °F -0.3 °F 30.55 in NW 8.5 mph 12.7 mph 41 % 0.00 in
22:44 19.5 °F 1.1 °F 30.54 in NW 4.2 mph 8.1 mph 44 % 0.00 in
22:46 19.5 °F 1.1 °F 30.54 in West 6.7 mph 11.5 mph 44 % 0.00 in
22:51 19.4 °F 0.5 °F 30.54 in NW 6.1 mph 15.0 mph 43 % 0.00 in
22:56 19.3 °F -0.1 °F 30.54 in NW 6.1 mph 15.0 mph 42 % 0.00 in
23:01 19.3 °F 0.4 °F 30.55 in NNW 7.5 mph 13.0 mph 43 % 0.00 in
23:06 19.2 °F 0.3 °F 30.54 in North 7.3 mph 13.8 mph 43 % 0.00 in
23:11 19.0 °F 0.1 °F 30.54 in North 9.2 mph 17.3 mph 43 % 0.00 in
23:16 19.0 °F 1.1 °F 30.54 in NW 9.6 mph 16.1 mph 45 % 0.00 in
23:21 18.9 °F 0.5 °F 30.54 in NW 7.4 mph 17.3 mph 44 % 0.00 in
23:26 18.9 °F 0.5 °F 30.55 in North 8.1 mph 12.7 mph 44 % 0.00 in
23:31 18.7 °F 0.4 °F 30.54 in NNE 10.9 mph 19.6 mph 44 % 0.00 in
23:37 18.6 °F 0.7 °F 30.55 in NE 11.9 mph 19.6 mph 45 % 0.00 in
23:42 18.6 °F 0.7 °F 30.54 in NW 8.7 mph 17.3 mph 45 % 0.00 in
23:47 18.5 °F 0.7 °F 30.55 in NW 6.7 mph 11.0 mph 45 % 0.00 in
23:52 18.4 °F 0.1 °F 30.55 in North 8.7 mph 11.5 mph 44 % 0.00 in
23:57 18.2 °F -0.1 °F 30.55 in North 9.2 mph 13.8 mph 44 % 0.00 in
Crab Meadow Weather
Compliments of Weather Underground - 3 mb

Script developed by  Jim McMurry - jmcmurry@mwt.net Adapted for the template by  Wim van der Kuil - Leuven-Template.eu

Astronomy: A year on Venus is 225 days.